カタログに戻る

COSMOS 2177

GLONASS

運用中ナビゲーションMEO
NORAD 21853·PAYLOAD·🇷🇺 Russia

打ち上げ Jan 29, 1992 から Baikonur Cosmodrome

Loading…

次のパス (今後24時間)

TLE

最新Source: Space-Track

元期: Sep 13, 2026, 22:03 UTC

1 21853U 92005A   26256.91928941 -.00000014  00000-0  00000+0 0  9994
2 21853  64.9452  66.9301 0006860 169.7127   7.3111  2.13101183269447

AllMySatでCOSMOS 2177をリアルタイム追跡

Download on the App Store